When you browse on this site, cookies collect data to enhance your experience and personalize the content and advertising you see.
Visit our Privacy Policy to learn more. By continuing to use the site, you agree to this use of cookies and data.
  • En España
  • Lista de países
  • Para 7 días
  • Temperatura del agua
  • Mapa Satelital
  • El tiempo en el mapa
  • Informadores
  • user-avatar
    Iniciar sesión

    Tiempo cada hora Ordino

    Hoy, 18 Junio, Martes

    Tiempo Temperatura Precipitaciones Viento Presión Humedad
    00:00 +12°C° 0 mm 1 mps 633 mmHg 76%
    01:00 +12°C° 0 mm 1 mps 633 mmHg 74%
    02:00 +12°C° 0 mm 1 mps 632 mmHg 72%
    03:00 +12°C° 0 mm 2 mps 632 mmHg 70%
    04:00 +13°C° 0 mm 1 mps 633 mmHg 67%
    05:00 +14°C° 0 mm 1 mps 633 mmHg 63%
    06:00 +15°C° 0 mm 1 mps 633 mmHg 60%
    07:00 +17°C° 0 mm 2 mps 634 mmHg 52%
    08:00 +19°C° 0 mm 2 mps 635 mmHg 45%
    09:00 +21°C° 0 mm 2 mps 635 mmHg 37%
    10:00 +22°C° 0 mm 3 mps 636 mmHg 35%
    11:00 +24°C° 0 mm 3 mps 636 mmHg 33%
    12:00 +25°C° 0 mm 4 mps 636 mmHg 31%
    13:00 +23°C° 0 mm 4 mps 635 mmHg 33%
    14:00 +23°C° 0 mm 4 mps 635 mmHg 34%
    15:00 +23°C° 0 mm 4 mps 635 mmHg 35%
    16:00 +22°C° 0 mm 4 mps 634 mmHg 40%
    17:00 +21°C° 0 mm 3 mps 634 mmHg 45%
    18:00 +20°C° 0 mm 2 mps 633 mmHg 50%
    19:00 +18°C° 0 mm 2 mps 633 mmHg 55%
    20:00 +15°C° 0 mm 2 mps 632 mmHg 60%
    21:00 +13°C° 0 mm 1 mps 631 mmHg 65%
    22:00 +13°C° 0 mm 1 mps 631 mmHg 64%
    23:00 +12°C° 0 mm 1 mps 631 mmHg 63%

    Mañana, 19 Junio, Miércoles

    Tiempo Temperatura Precipitaciones Viento Presión Humedad
    00:00 +12°C° 0 mm 2 mps 631 mmHg 62%
    01:00 +12°C° 0 mm 1 mps 631 mmHg 59%
    02:00 +12°C° 0 mm 1 mps 631 mmHg 57%
    03:00 +12°C° 0 mm 1 mps 631 mmHg 54%
    04:00 +13°C° 0 mm 1 mps 632 mmHg 55%
    05:00 +14°C° 0 mm 1 mps 632 mmHg 55%
    06:00 +15°C° 0 mm 1 mps 633 mmHg 56%
    07:00 +18°C° 0 mm 1 mps 634 mmHg 48%
    08:00 +19°C° 0 mm 2 mps 634 mmHg 40%
    09:00 +21°C° 0 mm 2 mps 635 mmHg 32%
    10:00 +21°C° 0 mm 2 mps 635 mmHg 31%
    11:00 +22°C° 0 mm 3 mps 635 mmHg 30%
    12:00 +24°C° 0 mm 3 mps 635 mmHg 29%
    13:00 +24°C° 0 mm 3 mps 635 mmHg 30%
    14:00 +24°C° 0 mm 3 mps 635 mmHg 31%
    15:00 +24°C° 0 mm 3 mps 634 mmHg 32%
    16:00 +22°C° 0 mm 3 mps 634 mmHg 39%
    17:00 +21°C° 0 mm 2 mps 633 mmHg 47%
    18:00 +19°C° 0 mm 2 mps 633 mmHg 54%
    19:00 +18°C° 0 mm 1 mps 632 mmHg 59%
    20:00 +15°C° 0 mm 1 mps 632 mmHg 63%
    21:00 +12°C° 0 mm 0 mps 631 mmHg 68%
    22:00 +13°C° 0 mm 1 mps 632 mmHg 68%
    23:00 +13°C° 0 mm 1 mps 632 mmHg 68%

    Pasado mañana, 20 Junio, Jueves

    Tiempo Temperatura Precipitaciones Viento Presión Humedad
    00:00 +13°C° 0 mm 1 mps 632 mmHg 68%
    01:00 +13°C° 0 mm 1 mps 632 mmHg 70%
    02:00 +11°C° 0 mm 0 mps 631 mmHg 72%
    03:00 +11°C° 0 mm 0 mps 631 mmHg 74%
    04:00 +12°C° 0 mm 0 mps 632 mmHg 74%
    05:00 +13°C° 0 mm 1 mps 632 mmHg 74%
    06:00 +14°C° 0 mm 1 mps 633 mmHg 73%
    07:00 +16°C° 0 mm 1 mps 634 mmHg 67%
    08:00 +17°C° 0 mm 2 mps 634 mmHg 60%
    09:00 +19°C° 0 mm 2 mps 635 mmHg 53%
    10:00 +19°C° 0 mm 3 mps 635 mmHg 51%
    11:00 +20°C° 0 mm 4 mps 635 mmHg 48%
    12:00 +21°C° 0 mm 4 mps 636 mmHg 45%
    13:00 +20°C° 0.1 mm 4 mps 635 mmHg 52%
    14:00 +19°C° 0.1 mm 4 mps 635 mmHg 58%
    15:00 +18°C° 0.1 mm 3 mps 634 mmHg 64%
    16:00 +17°C° 1.2 mm 3 mps 634 mmHg 74%
    17:00 +16°C° 1.2 mm 2 mps 633 mmHg 84%
    18:00 +14°C° 1.2 mm 1 mps 633 mmHg 93%
    19:00 +13°C° 1.9 mm 1 mps 633 mmHg 94%
    20:00 +13°C° 1.9 mm 1 mps 633 mmHg 95%
    21:00 +12°C° 1.9 mm 1 mps 633 mmHg 96%
    22:00 +12°C° 0 mm 1 mps 633 mmHg 95%
    23:00 +12°C° 0 mm 1 mps 633 mmHg 95%

    21 Junio, Viernes

    Tiempo Temperatura Precipitaciones Viento Presión Humedad
    00:00 +11°C° 0 mm 1 mps 633 mmHg 94%
    01:00 +11°C° 0 mm 1 mps 633 mmHg 93%
    02:00 +10°C° 0 mm 0 mps 633 mmHg 92%
    03:00 +10°C° 0 mm 0 mps 633 mmHg 90%
    04:00 +11°C° 0 mm 0 mps 633 mmHg 90%
    05:00 +11°C° 0 mm 0 mps 633 mmHg 90%
    06:00 +12°C° 0 mm 0 mps 634 mmHg 90%
    07:00 +14°C° 0.5 mm 1 mps 634 mmHg 87%
    08:00 +15°C° 0.5 mm 1 mps 635 mmHg 84%
    09:00 +16°C° 0.5 mm 2 mps 635 mmHg 81%
    10:00 +16°C° 1.1 mm 2 mps 635 mmHg 81%
    11:00 +17°C° 1.1 mm 2 mps 635 mmHg 81%
    12:00 +17°C° 1.1 mm 2 mps 635 mmHg 81%
    13:00 +17°C° 1.5 mm 2 mps 635 mmHg 83%
    14:00 +16°C° 1.5 mm 2 mps 634 mmHg 85%
    15:00 +16°C° 1.5 mm 2 mps 634 mmHg 87%
    16:00 +15°C° 1.8 mm 1 mps 634 mmHg 89%
    17:00 +15°C° 1.8 mm 1 mps 634 mmHg 92%
    18:00 +14°C° 1.8 mm 1 mps 633 mmHg 94%
    19:00 +13°C° 0.6 mm 1 mps 634 mmHg 94%
    20:00 +13°C° 0.6 mm 1 mps 634 mmHg 95%
    21:00 +12°C° 0.6 mm 1 mps 634 mmHg 96%
    22:00 +11°C° 0 mm 0 mps 634 mmHg 95%
    23:00 +10°C° 0 mm 0 mps 634 mmHg 95%

    22 Junio, Sábado

    Tiempo Temperatura Precipitaciones Viento Presión Humedad
    00:00 +10°C° 0 mm 0 mps 633 mmHg 94%
    01:00 +10°C° 0 mm 0 mps 633 mmHg 94%
    02:00 +11°C° 0 mm 1 mps 633 mmHg 93%
    03:00 +11°C° 0 mm 1 mps 633 mmHg 93%
    04:00 +11°C° 0 mm 1 mps 633 mmHg 92%
    05:00 +12°C° 0 mm 1 mps 634 mmHg 91%
    06:00 +13°C° 0 mm 1 mps 634 mmHg 90%
    07:00 +15°C° 0.1 mm 1 mps 635 mmHg 83%
    08:00 +18°C° 0.1 mm 1 mps 635 mmHg 76%
    09:00 +19°C° 0.1 mm 1 mps 636 mmHg 69%
    10:00 +19°C° 0.2 mm 2 mps 636 mmHg 64%
    11:00 +20°C° 0.2 mm 2 mps 636 mmHg 59%
    12:00 +21°C° 0.2 mm 2 mps 636 mmHg 53%
    13:00 +21°C° 0.2 mm 3 mps 636 mmHg 53%
    14:00 +21°C° 0.2 mm 3 mps 636 mmHg 53%
    15:00 +21°C° 0.2 mm 3 mps 635 mmHg 53%
    16:00 +20°C° 0.1 mm 2 mps 635 mmHg 58%
    17:00 +20°C° 0.1 mm 2 mps 635 mmHg 63%
    18:00 +20°C° 0.1 mm 1 mps 634 mmHg 68%
    19:00 +18°C° 0 mm 1 mps 634 mmHg 72%
    20:00 +15°C° 0 mm 1 mps 633 mmHg 75%
    21:00 +13°C° 0 mm 1 mps 633 mmHg 79%
    22:00 +13°C° 0 mm 1 mps 633 mmHg 80%
    23:00 +13°C° 0 mm 1 mps 633 mmHg 81%

    23 Junio, Domingo

    Tiempo Temperatura Precipitaciones Viento Presión Humedad
    00:00 +13°C° 0 mm 2 mps 633 mmHg 82%
    01:00 +13°C° 0 mm 1 mps 632 mmHg 80%
    02:00 +13°C° 0 mm 1 mps 632 mmHg 79%
    03:00 +13°C° 0 mm 1 mps 632 mmHg 78%
    04:00 +14°C° 0 mm 1 mps 632 mmHg 73%
    05:00 +15°C° 0 mm 1 mps 633 mmHg 69%
    06:00 +16°C° 0 mm 2 mps 633 mmHg 65%
    07:00 +18°C° 0 mm 2 mps 634 mmHg 56%
    08:00 +20°C° 0 mm 2 mps 635 mmHg 47%
    09:00 +23°C° 0 mm 2 mps 636 mmHg 38%
    10:00 +24°C° 0 mm 3 mps 636 mmHg 37%
    11:00 +25°C° 0 mm 3 mps 636 mmHg 36%
    12:00 +26°C° 0 mm 3 mps 637 mmHg 34%
    13:00 +26°C° 0 mm 3 mps 636 mmHg 35%
    14:00 +26°C° 0 mm 3 mps 636 mmHg 36%
    15:00 +26°C° 0 mm 3 mps 636 mmHg 36%
    16:00 +25°C° 0 mm 3 mps 636 mmHg 43%
    17:00 +24°C° 0 mm 2 mps 635 mmHg 49%
    18:00 +23°C° 0 mm 2 mps 635 mmHg 56%
    19:00 +20°C° 0 mm 2 mps 635 mmHg 59%
    20:00 +18°C° 0 mm 2 mps 634 mmHg 63%
    21:00 +16°C° 0 mm 2 mps 634 mmHg 67%
    22:00 +16°C° 0 mm 2 mps 634 mmHg 65%
    23:00 +16°C° 0 mm 2 mps 634 mmHg 63%
    Mostrar más